Flag for Germany Weather past 2 weeks in Bocholt, North Rhine-Westphalia, Germany

Now
41 °F

Scattered clouds.


Feels Like: 36 °F
Forecast: 32 / 47 °F
Wind: 7 mph from Northwest

Location: Niederrhein

Current Time: Feb 27, 2015 at 9:21:28 AM

Latest Report: Feb 27, 2015 at 8:50 AM


Visibility: N/A

Pressure: 29.92 "Hg

Humidity: 100%

Dew point: 41 °F

Location of BocholtLocation

Historic Weather in Bocholt — Graph

°F

Bocholt temperature yesterday

Maximum temperature yesterday: 50 °F (at 1:20 PM)
Minimum temperature yesterday: 39 °F (at 5:50 AM)
Average temperature yesterday: 45 °F

Past Weeks' High & Low Weather Summary

 TemperatureHumidityPressure
High52 °F (Feb 14, 1:50 PM)100% (Feb 12, 7:50 AM)30.74 "Hg (Feb 12, 7:50 AM)
Low27 °F (Feb 18, 4:50 AM)67% (Feb 14, 4:20 PM)29.33 "Hg (Feb 23, 2:20 PM)
Average40 °F97%29.96 "Hg
* Reported Feb 12 7:50 AM — Feb 27 7:50 AM, Bocholt, Weather by CustomWeather, © 2015

Note: Actual official high and low records may vary slightly from our data, if they occured in-between our weather recording intervals... More about our weather records

Advertising

Bocholt weather history for previous 24 hours

 ConditionsComfort  
Time TempWeatherWind HumidityBarometerVisibility
7:50 AM
Fri, Feb 27
41 °FPassing clouds.9 mph100%29.92 "HgN/A
7:20 AM41 °FPassing clouds.9 mph100%29.89 "HgN/A
6:50 AM41 °FPassing clouds.8 mph100%29.89 "HgN/A
6:20 AM41 °FLight rain. Passing clouds.8 mph100%29.86 "HgN/A
5:50 AM41 °FLight rain. Passing clouds.5 mph100%29.86 "HgN/A
5:20 AM41 °FLight rain. Passing clouds.3 mph100%29.86 "HgN/A
11:50 PM
Thu, Feb 26
45 °FLight rain. Fog.8 mph100%29.77 "Hg3 mi
11:20 PM45 °FLight rain. Passing clouds.8 mph100%29.77 "Hg4 mi
10:50 PM45 °FLight rain. Fog.9 mph100%29.77 "Hg3 mi
10:20 PM45 °FLight rain. Fog.9 mph100%29.80 "Hg3 mi
9:50 PM45 °FPassing clouds.9 mph100%29.80 "Hg4 mi
9:20 PM45 °FPassing clouds.10 mph100%29.80 "Hg5 mi
8:50 PM45 °FFog.10 mph100%29.80 "Hg3 mi
8:20 PM45 °FPartly cloudy.9 mph100%29.83 "Hg4 mi
7:50 PM45 °FPartly cloudy.12 mph100%29.83 "Hg5 mi
7:20 PM45 °FFog.12 mph100%29.83 "Hg2 mi
6:50 PM45 °FFog.10 mph100%29.86 "Hg2 mi
6:20 PM45 °FDrizzle. Partly sunny.12 mph100%29.86 "Hg6 mi
5:50 PM46 °FDrizzle. Partly sunny.13 mph100%29.86 "Hg6 mi
5:20 PM48 °FPartly sunny.13 mph100%29.86 "HgN/A
4:50 PM50 °FPartly sunny.12 mph94%29.89 "HgN/A
4:20 PM50 °FScattered clouds.10 mph94%29.89 "HgN/A
3:50 PM50 °FPartly sunny.12 mph94%29.89 "HgN/A
3:20 PM50 °FPartly sunny.13 mph94%29.92 "HgN/A
2:50 PM50 °FPartly sunny.13 mph94%29.92 "HgN/A
2:20 PM50 °FPartly sunny.12 mph100%29.95 "HgN/A
1:50 PM50 °FPartly sunny.14 mph100%29.95 "HgN/A
1:20 PM50 °FScattered clouds.14 mph100%29.98 "HgN/A
12:50 PM48 °FScattered clouds.12 mph100%29.98 "HgN/A
12:20 PM48 °FScattered clouds.12 mph100%30.01 "HgN/A
11:50 AM46 °FPartly sunny.9 mph100%30.01 "HgN/A
11:20 AM45 °FPartly sunny.10 mph100%30.04 "HgN/A
10:50 AM43 °FPartly sunny.12 mph100%30.04 "HgN/A
10:20 AM43 °FPartly sunny.9 mph100%30.04 "HgN/A
9:50 AM43 °FPartly sunny.9 mph100%30.04 "Hg6 mi
9:20 AM41 °FPartly sunny.7 mph100%30.07 "Hg4 mi
Weather by CustomWeather, © 2015

See weather overviewHow to use our weather pages